Weather in Hagfors

Sweden     60°01′54″N   13°42′06″E
temp.,
°C
wind,
m/s
gust,
m/s
humid.,
%
clouds,
%
prec.,
mm/h
press.,
hPa
HPBL,
m
8 may, sat
sat823:00+2ssw225895 0.0 100719
02:00−1n017583 0.0 100810
05:00−2nnw117644 0.0 100910
08:00+5sw004665 0.0 1009363
11:00+9sw344386 0.1 10091732
14:00+8sw3454100 1.1 10091478
17:00+9s446245 1.3 1008972
20:00+5wnw2386100 2.8 1009141
9 may, sun
sun923:00+2ssw1293100 0.2 101031
02:00+2s2695100 0.2 1010169
05:00+2sse2794100 0.0 1009206
08:00+4sse3883100 0.0 1008376
11:00+5sse4789100 0.3 1007803
14:00+4se3797100 2.4 1006893
17:00+4ese2697100 2.6 1005546
20:00+4ese2598100 4.4 1006289
10 may, mon
mon1023:00+5se2499100 0.2 1006140
02:00+6se1299100 3.3 100671
05:00+8ese2499100 0.2 1005139
08:00+10ese2899100 0.3 1005336
11:00+12sse2897100 0.1 1004555
14:00+13s41292100 0.6 1005736
17:00+16s41186100 0.1 1005581
20:00+14sse3794100 0.8 1006217
11 may, tue
tue1123:00+12sse3994100 0.5 1006231
02:00+11s41293100 0.5 1007432
05:00+11ssw3997100 0.0 1008564
08:00+10sw4788100 0.0 1010518
11:00+13sw3469100 0.0 1011624
14:00+13w3468100 0.0 1012693
17:00+11nw3677100 0.0 1012502
20:00+9nnw1596100 0.9 1013215
12 may, wed
wed1223:00+9n2397100 1.6 1014123
02:00+9n2596100 1.6 1013165
05:00+9nne3994100 0.0 1014349
08:00+10ne41092100 0.1 1013498
11:00+12ne4990100 0.6 1013630
14:00+10ne41095100 1.4 1013550
17:00+10ene4997100 0.1 1013441
20:00+12ene4119799 0.3 1013431